Time,TemperatureF,DewpointF,PressureIn,WindDirection,WindDirectionDegrees,WindSpeedMPH,WindSpeedGustMPH,Humidity,HourlyPrecipIn,Conditions,Clouds,dailyrainin,SolarRadiationWatts/m^2,SoftwareType,DateUTC
2013-05-03 00:03:00,57.0,57.0,30.51,NNE,17,4.0,7.0,99,0.00,,,0.00,0.000000,,2013-05-03 04:03:00,
2013-05-03 00:13:00,57.0,57.0,30.51,NNE,17,4.0,7.0,99,0.00,,,0.00,0.000000,,2013-05-03 04:13:00,
2013-05-03 00:32:00,56.0,56.0,30.50,NNE,14,5.0,10.0,99,0.00,,,0.00,0.000000,,2013-05-03 04:32:00,
2013-05-03 00:43:00,56.0,56.0,30.50,NNE,14,5.0,10.0,99,0.00,,,0.00,0.000000,,2013-05-03 04:43:00,
2013-05-03 00:53:00,56.0,56.0,30.50,NNE,14,5.0,10.0,99,0.00,,,0.00,0.000000,,2013-05-03 04:53:00,
2013-05-03 01:03:00,56.0,56.0,30.50,NNE,14,5.0,10.0,99,0.00,,,0.00,0.000000,,2013-05-03 05:03:00,
2013-05-03 01:12:00,56.0,56.0,30.50,NNE,14,5.0,10.0,99,0.00,,,0.00,0.000000,,2013-05-03 05:12:00,
2013-05-03 01:32:00,55.0,54.0,30.48,NE,35,6.0,10.0,98,0.00,,,0.00,0.000000,,2013-05-03 05:32:00,
2013-05-03 01:42:00,55.0,54.0,30.48,NE,35,6.0,10.0,98,0.00,,,0.00,0.000000,,2013-05-03 05:42:00,
2013-05-03 01:52:00,55.0,54.0,30.48,NE,35,6.0,10.0,98,0.00,,,0.00,0.000000,,2013-05-03 05:52:00,
2013-05-03 02:02:00,55.0,54.0,30.48,NE,35,6.0,10.0,98,0.00,,,0.00,0.000000,,2013-05-03 06:02:00,
2013-05-03 02:12:00,55.0,54.0,30.48,NE,35,6.0,10.0,98,0.00,,,0.00,0.000000,,2013-05-03 06:12:00,
2013-05-03 02:42:00,55.0,53.0,30.47,NE,53,6.0,13.0,92,0.00,,,0.00,0.000000,,2013-05-03 06:42:00,
2013-05-03 02:52:00,55.0,53.0,30.47,NE,53,6.0,13.0,92,0.00,,,0.00,0.000000,,2013-05-03 06:52:00,
2013-05-03 03:02:00,55.0,53.0,30.47,NE,53,6.0,13.0,92,0.00,,,0.00,0.000000,,2013-05-03 07:02:00,
2013-05-03 03:11:00,55.0,53.0,30.47,NE,53,6.0,13.0,92,0.00,,,0.00,0.000000,,2013-05-03 07:11:00,
2013-05-03 03:42:00,53.0,50.0,30.46,NE,54,4.0,11.0,91,0.00,,,0.00,0.000000,,2013-05-03 07:42:00,
2013-05-03 03:52:00,53.0,50.0,30.46,NE,54,4.0,11.0,91,0.00,,,0.00,0.000000,,2013-05-03 07:52:00,
2013-05-03 04:02:00,53.0,50.0,30.46,NE,54,4.0,11.0,91,0.00,,,0.00,0.000000,,2013-05-03 08:02:00,
2013-05-03 04:12:00,53.0,50.0,30.46,NE,54,4.0,11.0,91,0.00,,,0.00,0.000000,,2013-05-03 08:12:00,
2013-05-03 04:42:00,51.0,50.0,30.46,NE,49,6.0,10.0,95,0.00,,,0.00,0.000000,,2013-05-03 08:42:00,
2013-05-03 04:53:00,51.0,50.0,30.46,NE,49,6.0,10.0,95,0.00,,,0.00,0.000000,,2013-05-03 08:53:00,
2013-05-03 05:01:00,51.0,50.0,30.46,NE,49,6.0,10.0,95,0.00,,,0.00,0.000000,,2013-05-03 09:01:00,
2013-05-03 05:12:00,51.0,50.0,30.46,NE,49,6.0,10.0,95,0.00,,,0.00,0.000000,,2013-05-03 09:12:00,
2013-05-03 05:42:00,51.0,50.0,30.46,NNE,31,3.0,11.0,98,0.00,,,0.00,0.000000,,2013-05-03 09:42:00,
2013-05-03 05:53:00,51.0,50.0,30.46,NNE,31,3.0,11.0,98,0.00,,,0.00,0.000000,,2013-05-03 09:53:00,
2013-05-03 06:03:00,51.0,50.0,30.46,NNE,31,3.0,11.0,98,0.00,,,0.00,0.000000,,2013-05-03 10:03:00,
2013-05-03 06:13:00,51.0,50.0,30.46,NNE,31,3.0,11.0,98,0.00,,,0.00,0.000000,,2013-05-03 10:13:00,
2013-05-03 06:32:00,50.0,50.0,30.47,NNE,23,5.0,9.0,99,0.00,,,0.00,0.000000,,2013-05-03 10:32:00,
2013-05-03 06:42:00,50.0,50.0,30.47,NNE,23,5.0,9.0,99,0.00,,,0.00,0.000000,,2013-05-03 10:42:00,
2013-05-03 06:52:00,50.0,50.0,30.47,NNE,23,5.0,9.0,99,0.00,,,0.00,0.000000,,2013-05-03 10:52:00,
2013-05-03 07:02:00,50.0,50.0,30.47,NNE,23,5.0,9.0,99,0.00,,,0.00,0.000000,,2013-05-03 11:02:00,
2013-05-03 07:11:00,50.0,50.0,30.47,NNE,23,5.0,9.0,99,0.00,,,0.00,0.000000,,2013-05-03 11:11:00,
2013-05-03 07:32:00,49.0,48.0,30.48,NNE,23,6.0,11.0,98,0.00,,,0.00,10.000000,,2013-05-03 11:32:00,
2013-05-03 07:42:00,49.0,48.0,30.48,NNE,23,6.0,11.0,98,0.00,,,0.00,10.000000,,2013-05-03 11:42:00,
2013-05-03 07:52:00,49.0,48.0,30.48,NNE,23,6.0,11.0,98,0.00,,,0.00,10.000000,,2013-05-03 11:52:00,
2013-05-03 08:02:00,49.0,48.0,30.48,NNE,23,6.0,11.0,98,0.00,,,0.00,10.000000,,2013-05-03 12:02:00,
2013-05-03 08:12:00,49.0,48.0,30.48,NNE,23,6.0,11.0,98,0.00,,,0.00,10.000000,,2013-05-03 12:12:00,
2013-05-03 08:42:00,54.0,49.0,30.49,NE,43,8.0,16.0,83,0.00,,,0.00,129.000000,,2013-05-03 12:42:00,
2013-05-03 08:52:00,54.0,49.0,30.49,NE,43,8.0,16.0,83,0.00,,,0.00,129.000000,,2013-05-03 12:52:00,
2013-05-03 09:01:00,54.0,49.0,30.49,NE,43,8.0,16.0,83,0.00,,,0.00,129.000000,,2013-05-03 13:01:00,
2013-05-03 09:11:00,54.0,49.0,30.49,NE,43,8.0,16.0,83,0.00,,,0.00,129.000000,,2013-05-03 13:11:00,
2013-05-03 09:42:00,59.0,49.0,30.49,NE,42,11.0,20.0,69,0.00,,,0.00,332.000000,,2013-05-03 13:42:00,
2013-05-03 09:52:00,59.0,49.0,30.49,NE,42,11.0,20.0,69,0.00,,,0.00,332.000000,,2013-05-03 13:52:00,
2013-05-03 10:02:00,59.0,49.0,30.49,NE,42,11.0,20.0,69,0.00,,,0.00,332.000000,,2013-05-03 14:02:00,
2013-05-03 10:11:00,59.0,49.0,30.49,NE,42,11.0,20.0,69,0.00,,,0.00,332.000000,,2013-05-03 14:11:00,
2013-05-03 10:42:00,63.0,48.0,30.49,NE,55,9.0,22.0,59,0.01,,,0.01,602.000000,,2013-05-03 14:42:00,
2013-05-03 10:52:00,63.0,48.0,30.49,NE,55,9.0,22.0,59,0.01,,,0.01,602.000000,,2013-05-03 14:52:00,
2013-05-03 11:01:00,63.0,48.0,30.49,NE,55,9.0,22.0,59,0.01,,,0.01,602.000000,,2013-05-03 15:01:00,
2013-05-03 11:11:00,63.0,48.0,30.49,NE,55,9.0,22.0,59,0.01,,,0.01,602.000000,,2013-05-03 15:11:00,
2013-05-03 11:43:00,64.0,47.0,30.49,NE,44,10.0,22.0,55,0.00,,,0.01,811.000000,,2013-05-03 15:43:00,
2013-05-03 11:53:00,64.0,47.0,30.49,NE,44,10.0,22.0,55,0.00,,,0.01,811.000000,,2013-05-03 15:53:00,
2013-05-03 12:03:00,64.0,47.0,30.49,NE,44,10.0,22.0,55,0.00,,,0.01,811.000000,,2013-05-03 16:03:00,
2013-05-03 12:13:00,64.0,47.0,30.49,NE,44,10.0,22.0,55,0.00,,,0.01,811.000000,,2013-05-03 16:13:00,
2013-05-03 12:42:00,66.0,50.0,30.48,ENE,67,11.0,26.0,56,0.00,,,0.01,735.000000,,2013-05-03 16:42:00,
2013-05-03 12:52:00,66.0,50.0,30.48,ENE,67,11.0,26.0,56,0.00,,,0.01,735.000000,,2013-05-03 16:52:00,
2013-05-03 13:02:00,66.0,50.0,30.48,ENE,67,11.0,26.0,56,0.00,,,0.01,735.000000,,2013-05-03 17:02:00,
2013-05-03 13:12:00,66.0,50.0,30.48,ENE,67,11.0,26.0,56,0.00,,,0.01,735.000000,,2013-05-03 17:12:00,
2013-05-03 13:42:00,66.0,49.0,30.47,ENE,65,11.0,24.0,54,0.00,,,0.01,709.000000,,2013-05-03 17:42:00,
2013-05-03 13:52:00,66.0,49.0,30.47,ENE,65,11.0,24.0,54,0.00,,,0.01,709.000000,,2013-05-03 17:52:00,
2013-05-03 14:01:00,66.0,49.0,30.47,ENE,65,11.0,24.0,54,0.00,,,0.01,709.000000,,2013-05-03 18:01:00,
2013-05-03 14:12:00,66.0,49.0,30.47,ENE,65,11.0,24.0,54,0.00,,,0.01,709.000000,,2013-05-03 18:12:00,
2013-05-03 14:32:00,68.0,51.0,30.45,ENE,67,10.0,21.0,54,0.00,,,0.01,530.000000,,2013-05-03 18:32:00,
2013-05-03 14:42:00,68.0,51.0,30.45,ENE,67,10.0,21.0,54,0.00,,,0.01,530.000000,,2013-05-03 18:42:00,
2013-05-03 14:52:00,68.0,51.0,30.45,ENE,67,10.0,21.0,54,0.00,,,0.01,530.000000,,2013-05-03 18:52:00,
2013-05-03 15:01:00,68.0,51.0,30.45,ENE,67,10.0,21.0,54,0.00,,,0.01,530.000000,,2013-05-03 19:01:00,
2013-05-03 15:11:00,68.0,51.0,30.45,ENE,67,10.0,21.0,54,0.00,,,0.01,530.000000,,2013-05-03 19:11:00,
2013-05-03 15:42:00,70.0,47.0,30.43,ENE,60,13.0,24.0,44,0.00,,,0.01,866.000000,,2013-05-03 19:42:00,
2013-05-03 15:52:00,70.0,47.0,30.43,ENE,60,13.0,24.0,44,0.00,,,0.01,866.000000,,2013-05-03 19:52:00,
2013-05-03 16:02:00,70.0,47.0,30.43,ENE,60,13.0,24.0,44,0.00,,,0.01,866.000000,,2013-05-03 20:02:00,
2013-05-03 16:12:00,70.0,47.0,30.43,ENE,60,13.0,24.0,44,0.00,,,0.01,866.000000,,2013-05-03 20:12:00,
2013-05-03 16:32:00,67.0,47.0,30.42,ENE,61,10.0,23.0,49,0.00,,,0.01,572.000000,,2013-05-03 20:32:00,
2013-05-03 16:42:00,67.0,47.0,30.42,ENE,61,10.0,23.0,49,0.00,,,0.01,572.000000,,2013-05-03 20:42:00,
2013-05-03 16:52:00,67.0,47.0,30.42,ENE,61,10.0,23.0,49,0.00,,,0.01,572.000000,,2013-05-03 20:52:00,
2013-05-03 17:02:00,67.0,47.0,30.42,ENE,61,10.0,23.0,49,0.00,,,0.01,572.000000,,2013-05-03 21:02:00,
2013-05-03 17:11:00,67.0,47.0,30.42,ENE,61,10.0,23.0,49,0.00,,,0.01,572.000000,,2013-05-03 21:11:00,
2013-05-03 17:33:00,67.0,48.0,30.41,ENE,60,10.0,25.0,51,0.00,,,0.01,418.000000,,2013-05-03 21:33:00,
2013-05-03 17:43:00,67.0,48.0,30.41,ENE,60,10.0,25.0,51,0.00,,,0.01,418.000000,,2013-05-03 21:43:00,
2013-05-03 17:53:00,67.0,48.0,30.41,ENE,60,10.0,25.0,51,0.00,,,0.01,418.000000,,2013-05-03 21:53:00,
2013-05-03 18:03:00,67.0,48.0,30.41,ENE,60,10.0,25.0,51,0.00,,,0.01,418.000000,,2013-05-03 22:03:00,
2013-05-03 18:13:00,67.0,48.0,30.41,ENE,60,10.0,25.0,51,0.00,,,0.01,418.000000,,2013-05-03 22:13:00,
2013-05-03 18:42:00,65.0,48.0,30.40,ENE,63,7.0,23.0,54,0.00,,,0.01,375.000000,,2013-05-03 22:42:00,
2013-05-03 18:52:00,65.0,48.0,30.40,ENE,63,7.0,23.0,54,0.00,,,0.01,375.000000,,2013-05-03 22:52:00,
2013-05-03 19:02:00,65.0,48.0,30.40,ENE,63,7.0,23.0,54,0.00,,,0.01,375.000000,,2013-05-03 23:02:00,
2013-05-03 19:11:00,65.0,48.0,30.40,ENE,63,7.0,23.0,54,0.00,,,0.01,375.000000,,2013-05-03 23:11:00,
2013-05-03 19:52:00,65.0,50.0,30.39,SSW,199,8.0,21.0,58,0.00,,,0.01,131.000000,,2013-05-03 23:52:00,
2013-05-03 20:01:00,65.0,50.0,30.39,SSW,199,8.0,21.0,58,0.00,,,0.01,131.000000,,2013-05-04 00:01:00,
2013-05-03 20:11:00,65.0,50.0,30.39,SSW,199,8.0,21.0,58,0.00,,,0.01,131.000000,,2013-05-04 00:11:00,
2013-05-03 20:42:00,62.0,48.0,30.40,ENE,58,9.0,18.0,61,0.00,,,0.01,43.000000,,2013-05-04 00:42:00,
2013-05-03 20:52:00,62.0,48.0,30.40,ENE,58,9.0,18.0,61,0.00,,,0.01,43.000000,,2013-05-04 00:52:00,
2013-05-03 21:01:00,62.0,48.0,30.40,ENE,58,9.0,18.0,61,0.00,,,0.01,43.000000,,2013-05-04 01:01:00,
2013-05-03 21:11:00,62.0,48.0,30.40,ENE,58,9.0,18.0,61,0.00,,,0.01,43.000000,,2013-05-04 01:11:00,
2013-05-03 21:32:00,62.0,42.0,30.40,ENE,65,10.0,27.0,47,0.00,,,0.01,0.000000,,2013-05-04 01:32:00,
2013-05-03 21:42:00,62.0,42.0,30.40,ENE,65,10.0,27.0,47,0.00,,,0.01,0.000000,,2013-05-04 01:42:00,
2013-05-03 21:52:00,62.0,42.0,30.40,ENE,65,10.0,27.0,47,0.00,,,0.01,0.000000,,2013-05-04 01:52:00,
2013-05-03 22:02:00,62.0,42.0,30.40,ENE,65,10.0,27.0,47,0.00,,,0.01,0.000000,,2013-05-04 02:02:00,
2013-05-03 22:11:00,62.0,42.0,30.40,ENE,65,10.0,27.0,47,0.00,,,0.01,0.000000,,2013-05-04 02:11:00,
2013-05-03 22:32:00,60.0,39.0,30.42,ENE,69,12.0,29.0,45,0.00,,,0.01,0.000000,,2013-05-04 02:32:00,
2013-05-03 22:42:00,60.0,39.0,30.42,ENE,69,12.0,29.0,45,0.00,,,0.01,0.000000,,2013-05-04 02:42:00,
2013-05-03 22:52:00,60.0,39.0,30.42,ENE,69,12.0,29.0,45,0.00,,,0.01,0.000000,,2013-05-04 02:52:00,
2013-05-03 23:02:00,60.0,39.0,30.42,ENE,69,12.0,29.0,45,0.00,,,0.01,0.000000,,2013-05-04 03:02:00,
2013-05-03 23:11:00,60.0,39.0,30.42,ENE,69,12.0,29.0,45,0.00,,,0.01,0.000000,,2013-05-04 03:11:00,
2013-05-03 23:43:00,55.0,40.0,30.42,ENE,71,11.0,27.0,56,0.00,,,0.01,0.000000,,2013-05-04 03:43:00,
2013-05-03 23:53:00,55.0,40.0,30.42,ENE,71,11.0,27.0,56,0.00,,,0.01,0.000000,,2013-05-04 03:53:00,